JS1SZZ-13 Weather Reports


time (UTC)temp
C
wind
direction
speed
KPH
gust
KPH
rain 1hr
cm
rain 24hr
cm
rain mn
cm
humidity
%
barometer
mb
20260505125000 7 0 0.0 0.0 0.00 0.00 0.00 78 1020.5
20260505123459 7 0 0.0 0.0 0.00 0.00 0.00 75 1020.3
20260505122001 8 0 0.0 0.0 0.00 0.00 0.00 75 1020.1
20260505120500 8 0 0.0 0.0 0.00 0.00 0.00 72 1019.9
20260505115000 8 0 0.0 0.0 0.00 0.00 0.00 70 1019.6
20260505113500 9 0 0.0 0.0 0.00 0.00 0.00 69 1019.5
20260505111959 9 0 0.0 0.0 0.00 0.00 0.00 67 1019.3
20260505110500 10 0 0.0 0.0 0.00 0.00 0.00 67 1018.8
20260505102000 11 0 0.0 0.0 0.00 0.00 0.00 57 1018.4
20260505100500 12 0 0.0 0.0 0.00 0.00 0.00 52 1018.3
20260505095000 13 0 0.0 0.0 0.00 0.00 0.00 50 1017.9
20260505093500 15 0 0.0 0.0 0.00 0.00 0.00 45 1017.9
20260505091959 16 0 0.0 0.0 0.00 0.00 0.00 37 1017.4
20260505090500 17 0 0.0 0.0 0.00 0.00 0.00 32 1017.5
20260505085000 18 0 0.0 0.0 0.00 0.00 0.00 26 1017.2
20260505083500 18 0 0.0 0.0 0.00 0.00 0.00 29 1017.0
20260505081959 18 0 0.0 0.0 0.00 0.00 0.00 27 1016.8
20260505080500 20 0 0.0 0.0 0.00 0.00 0.00 22 1016.6
20260505075001 20 0 0.0 0.0 0.00 0.00 0.00 19 1016.6
20260505073500 21 0 0.0 0.0 0.00 0.00 0.00 20 1016.5
20260505071959 20 0 0.0 0.0 0.00 0.00 0.00 19 1016.1
20260505070459 20 0 0.0 0.0 0.00 0.00 0.00 20 1016.0
20260505065000 20 0 0.0 0.0 0.00 0.00 0.00 21 1015.6
20260505063500 20 0 0.0 0.0 0.00 0.00 0.00 19 1015.7
20260505061959 20 0 0.0 0.0 0.00 0.00 0.00 20 1015.8
20260505060500 20 0 0.0 0.0 0.00 0.00 0.00 20 1015.6
20260505055000 20 0 0.0 0.0 0.00 0.00 0.00 22 1015.4
20260505053459 20 0 0.0 0.0 0.00 0.00 0.00 20 1015.7
20260505051959 20 0 0.0 0.0 0.00 0.00 0.00 20 1015.7
20260505050459 18 0 0.0 0.0 0.00 0.00 0.00 22 1016.0
20260505040501 20 0 0.0 0.0 0.00 0.00 0.00 20 1016.1
20260505034959 20 0 0.0 0.0 0.00 0.00 0.00 23 1016.4
20260505033500 18 0 0.0 0.0 0.00 0.00 0.00 20 1016.4
20260505032000 20 0 0.0 0.0 0.00 0.00 0.00 27 1016.5
20260505030459 18 0 0.0 0.0 0.00 0.00 0.00 22 1016.5
20260505025000 18 0 0.0 0.0 0.00 0.00 0.00 22 1016.8
20260505023500 18 0 0.0 0.0 0.00 0.00 0.00 23 1016.4
20260505021959 18 0 0.0 0.0 0.00 0.00 0.00 23 1016.7
20260505020459 18 0 0.0 0.0 0.00 0.00 0.00 29 1016.9
20260505015000 18 0 0.0 0.0 0.00 0.00 0.00 22 1016.8
20260505013500 18 0 0.0 0.0 0.00 0.00 0.00 22 1016.9
20260505011959 18 0 0.0 0.0 0.00 0.00 0.00 25 1016.8
20260505010500 18 0 0.0 0.0 0.00 0.00 0.00 24 1017.1
20260505004959 17 0 0.0 0.0 0.00 0.00 0.00 21 1016.8
20260505003501 17 0 0.0 0.0 0.00 0.00 0.00 26 1016.8
20260505002000 17 0 0.0 0.0 0.00 0.00 0.00 24 1016.9
20260505000459 17 0 0.0 0.0 0.00 0.00 0.00 31 1016.8
20260504235000 17 0 0.0 0.0 0.00 0.00 0.00 33 1017.0
20260504233500 16 0 0.0 0.0 0.00 0.00 0.00 28 1017.0
20260504231959 15 0 0.0 0.0 0.00 0.00 0.00 30 1017.1
20260504230500 14 0 0.0 0.0 0.00 0.00 0.00 39 1017.0
20260504224959 14 0 0.0 0.0 0.00 0.00 0.00 38 1017.0
20260504223500 13 0 0.0 0.0 0.00 0.00 0.00 43 1016.8
20260504222000 12 0 0.0 0.0 0.00 0.00 0.00 52 1016.8
20260504220459 11 0 0.0 0.0 0.00 0.00 0.00 54 1017.0
20260504215001 10 0 0.0 0.0 0.00 0.00 0.00 61 1017.0
20260504213500 8 0 0.0 0.0 0.00 0.00 0.00 66 1016.9
20260504211959 8 0 0.0 0.0 0.00 0.00 0.00 76 1016.6
20260504210500 6 0 0.0 0.0 0.00 0.00 0.00 84 1016.4
20260504205000 4 0 0.0 0.0 0.00 0.00 0.00 89 1016.1
20260504203459 3 0 0.0 0.0 0.00 0.03 0.00 90 1015.8
20260504202000 2 0 0.0 0.0 0.00 0.03 0.00 88 1015.7
20260504200500 2 0 0.0 0.0 0.00 0.08 0.00 88 1015.3
20260504194959 2 0 0.0 0.0 0.00 0.25 0.00 88 1015.1
20260504193500 3 0 0.0 0.0 0.00 0.30 0.00 87 1014.9
20260504192000 3 0 0.0 0.0 0.00 0.30 0.00 87 1014.4
20260504190459 3 0 0.0 0.0 0.00 0.36 0.00 85 1014.3
20260504185000 3 0 0.0 0.0 0.00 0.36 0.00 83 1014.1
20260504183500 3 0 0.0 0.0 0.00 0.36 0.00 82 1013.8
20260504181959 4 0 0.0 0.0 0.00 0.38 0.00 80 1013.4
20260504180500 4 0 0.0 0.0 0.00 0.38 0.00 80 1013.2
20260504174959 5 0 0.0 0.0 0.00 0.41 0.00 78 1012.9
20260504173501 5 0 0.0 0.0 0.00 0.43 0.00 77 1012.7
20260504172000 5 0 0.0 0.0 0.00 0.46 0.00 74 1012.6
20260504170500 6 0 0.0 0.0 0.00 0.51 0.00 71 1012.6
20260504150500 8 0 0.0 0.0 0.00 0.56 0.00 60 1010.6
20260504140459 10 0 0.0 0.0 0.00 0.56 0.56 48 1009.4
20260504130500 11 0 0.0 0.0 0.00 0.58 0.56 45 1007.9